Regional Weather Roundup
Issued by NWS Charleston, SC

Current Version | Previous Version | Text Only | Print | Product List | Glossary Off
Versions: 1 2 3 4 5 6 7 8 9 10 11 12 13 14 15 16 17 18 19 20 21 22 23 24 25 26 27 28 29 30 31 32 33 34 35 36 37 38 39 40 41 42 43 44 45 46 47 48 49 50

000
ASUS42 KCHS 010125
RWRCHS

REGIONAL WEATHER ROUNDUP
NATIONAL WEATHER SERVICE CHARLESTON SC
900 PM EDT FRI OCT 31 2014

NOTE: "FAIR" INDICATES FEW OR NO CLOUDS BELOW 12,000 FEET WITH NO
SIGNIFICANT WEATHER AND/OR OBSTRUCTIONS TO VISIBILITY.

NOT ALL STATIONS ARE QUALITY CONTROLLED BY THE NATIONAL
WEATHER SERVICE. USE DATA WITH CAUTION...ESPECIALLY
DEWPOINT OBSERVATIONS.

SCZ027-030-031-034>040-042>050-010200-
...SOUTH CAROLINA...

CITY           SKY/WX    TMP DP  RH WIND       PRES   REMARKS
N CHARLESTON   FAIR      56  46  69 CALM      29.80S
WATERFRONT PRK NOT AVBL
FORT JOHNSON   NOT AVBL
JOHNS ISLAND   CLOUDY    57  54  88 SW3       29.81R
PINOPOLIS      NOT AVBL
MONCKS CORNER  FAIR      54  54 100 CALM      29.79S
SUMMERVILLE    CLOUDY    54  52  94 CALM      29.79F
BEAUFORT MCAS    N/A    N/A N/A N/A MISG      29.80F
BEAUFORT ARPT  FAIR      59  52  77 CALM      29.80F
HILTON HEAD IS   N/A     57  54  88 CALM      29.82S
GEORGETOWN     NOT AVBL
WALTERBORO     RAIN      59  50  72 NW3       29.82R
ORANGEBURG     LGT RAIN  56  52  86 N7        29.81R
BARNWELL       CLOUDY    57  55  94 CALM      29.81F
AIKEN          FAIR      59  45  58 W9        29.83S
MANNING        CLOUDY    57  55  94 CALM      29.80R
KINGSTREE      NOT AVBL
COLUMBIA       MOCLDY    58  49  72 S5        29.78F
SUMTER         LGT RAIN  57  50  77 S6        29.78S
FLORENCE       FAIR      51  46  83 CALM      29.79S
MYRTLE BEACH   CLEAR     54  46  76 CALM      29.79F
N MYRTLE BEACH FAIR      51  49  92 CALM      29.79F

$$

GAZ063-065-086>088-099>101-113>116-118-119-134-136>141-150-010200-
...GEORGIA...

CITY           SKY/WX    TMP DP  RH WIND       PRES   REMARKS
SAVANNAH ARPT  MOCLDY    60  51  72 W5        29.82R
HUNTER AAF     MOCLDY    60  53  78 W6        29.80S
FORT STEWART   CLOUDY    60  46  58 W6        29.82R
STATESBORO     NOT AVBL
SYLVANIA       PTCLDY    63  53  71 NW6       29.83R
CLAXTON        FAIR      61  45  55 W5        29.84S
THOMSON        PTCLDY    58  48  71 W3        29.88S
AUGUSTA-BUSH   MOCLDY    62  41  46 NW15G23   29.81S
AUGUSTA-DANIEL CLOUDY    62  42  47 W10G21    29.82S
SWAINSBORO     FAIR      61  46  59 MISG      29.86S
VIDALIA        PTCLDY    61  43  51 W7        29.86S
ALMA           PTCLDY    62  41  46 NW9       29.86R
WAYCROSS       PTCLDY    64  46  51 NW8       29.86S
JESUP          FAIR      61  46  59 NW7       29.85S
BRUNSWICK      MOCLDY    57  50  77 W3        29.85S
SAINT SIMONS   CLEAR     63  49  60 W3        29.84R

$$

SCZ027-028-034-036>038-045-046-048>050-GAZ119-141-010200-
...LAKE AND SUPPLEMENTAL COASTAL OBSERVATIONS...

STATION/POSITION TIME  TEMP    WIND        PRES    WAVE   SWELL
                       AIR SEA DIR/SP/G            HT/PER HT/PER/DIR
                 (UTC) (F)     (DEG/KT/KT) (MB)    (FT/S) (FT/S/D)
UPR LAKE MARION  NOT AVBL
WINYAH BAY       0100   54     310/  2     1008.0S
LAKE MURRAY      0000   62     100/  3/  5 1008.1R
ACE BASIN NERRS  0100   56      40/  2     1009.0F
FORT PULASKI     0100   64     200/  2/  3 1009.6F
SAPELO ISLAND    NOT AVBL

$$

ANZ835-935-AMZ111-154-330-350-352-354-374-450-454-472-010200-
...C-MAN AND BUOY OBSERVATIONS...

STATION/POSITION TIME  TEMP    WIND        PRES    WAVE   SWELL
                       AIR SEA DIR/SP/G            HT/PER HT/PER/DIR
                 (UTC) (F)     (DEG/KT/KT) (MB)    (FT/S) (FT/S/D)
FOLLY BEACH CMAN 0100   63     330/  2/  3 1009.4F
BUOY 41004       0100   66 76  340/  8/ 12 1008.8R   5/ 7   5/ 7
BUOY 41008       0100   68 74  250/  6/  8 1010.1R   3/ 8   3/ 80/ 8
5E ST. MARYS GA  0100      75                N/A     3/ 8
FRYING PAN BUOY  0100   65 73  340/ 14/ 17 1008.7F   4/ 8   2/100/ 8
BUOY 41025       0100   63     350/ 19/ 23 1006.5R   5/ 8
CAPE LOOKOUT NC  0100   59     350/ 11/ 13 1007.8F
BUOY 41002       0050   73 78  280/  6/ 10 1006.4R   4/ 7   3/ 60/ 7
BUOY 41010       0100   76 81  310/ 17/ 23 1008.5R   4/ 5   2/120/ 8
BUOY 41012       NOT AVBL
ST AUGUSTINE FL  0100   65     290/  5/  6 1011.6R
CAPERS NEARSHORE 0000   65      30/  4/  6   N/A
FRIPP NEARSHORE  NOT AVBL


$$



USA.gov is the U.S. government's official web portal to all federal, state and local government web resources and services.